Location: The Saddle
(36.8333°N, 80.3417°W)
Time: 06:35:30
(UTC-04:00)

Courier 1B - Pass Details

Date: 26 January 2022
Orbit: 962 x 1209 km, 28.3° (Epoch: 22 May)

Event Time Altitude Azimuth Distance (km) Brightness Sun altitude
Rises 21:41:08 0° 260° (W) 4,096 11.4 -48.0°
Reaches altitude 10° 21:44:07 10° 254° (WSW) 3,140 10.5 -48.6°
Enters shadow 21:45:56 18° 248° (WSW) 2,598 10.0 -48.9°
